Flag for Germany Weather past 2 weeks in Schwäbisch Gmünd, Baden-Württemberg, Germany

Now
61 °F

Clear.


Feels Like: 61 °F
Forecast: 51 / 78 °F
Wind: 5 mph from East

Location: Stoetten

Current Time: Jul 25, 2014 at 1:54:21 AM

Latest Report: Jul 25, 2014 at 1:00 AM


Visibility: 19 mi

Pressure: 29.91 "Hg

Humidity: 73%

Dew point: 52 °F

Location of Schwäbisch GmündLocation

Historic Weather in Schwäbisch Gmünd — Graph

°F

Schwäbisch Gmünd temperature yesterday

Maximum temperature yesterday: 74 °F (at 6:00 PM)
Minimum temperature yesterday: 59 °F (at 5:00 AM)
Average temperature yesterday: 67 °F

Past Weeks' High & Low Weather Summary

 TemperatureHumidityPressure
High85 °F (Jul 19, 5:00 PM)100% (Jul 10, 7:00 PM)30.19 "Hg (Jul 10, 7:00 PM)
Low47 °F (Jul 10, 1:00 AM)31% (Jul 18, 4:00 PM)29.78 "Hg (Jul 13, 5:00 PM)
Average64 °F74%29.94 "Hg
* Reported Jul 10 1:00 AM — Jul 25 1:00 AM, Schwäbisch Gmünd, Weather by CustomWeather, © 2014

Note: Actual official high and low records may vary slightly from our data, if they occured in-between our weather recording intervals... More about our weather records

Advertising

Schwäbisch Gmünd weather history for previous 24 hours

 ConditionsComfort  
Time TempWeatherWind HumidityBarometerVisibility
1:00 AM
Jul 25
61 °FClear.5 mph73%29.91 "Hg19 mi
12:00 AM63 °FOvercast.3 mph65%29.91 "Hg19 mi
11:00 PM
Jul 24
64 °FPassing clouds.2 mph61%29.89 "Hg22 mi
10:00 PM65 °FPassing clouds.2 mph58%29.88 "Hg22 mi
9:00 PM67 °FPassing clouds.2 mph54%29.86 "Hg47 mi
8:00 PM71 °FPassing clouds.3 mph46%29.83 "Hg47 mi
7:00 PM73 °FPassing clouds.3 mph39%29.82 "Hg47 mi
6:00 PM74 °FPassing clouds.2 mph39%29.82 "Hg47 mi
5:00 PM73 °FScattered clouds.3 mph45%29.83 "Hg47 mi
4:00 PM74 °FPassing clouds.2 mph41%29.84 "Hg47 mi
3:00 PM73 °FScattered clouds.2 mph44%29.84 "Hg47 mi
2:00 PM70 °FPartly sunny.3 mph49%29.86 "Hg47 mi
1:00 PM70 °FScattered clouds.5 mph47%29.86 "Hg47 mi
12:00 PM68 °FScattered clouds.6 mph51%29.87 "Hg40 mi
11:00 AM70 °FPassing clouds.3 mph53%29.85 "Hg37 mi
10:00 AM69 °FPassing clouds.3 mph54%29.85 "Hg34 mi
9:00 AM67 °FPassing clouds.5 mph59%29.86 "Hg31 mi
8:00 AM63 °FPassing clouds.5 mph63%29.88 "Hg31 mi
7:00 AM61 °FPassing clouds.3 mph65%29.88 "Hg28 mi
6:00 AM59 °FPassing clouds.3 mph67%29.90 "Hg25 mi
5:00 AM59 °FClear.5 mph69%29.90 "Hg22 mi
4:00 AM60 °FClear.5 mph69%29.90 "Hg22 mi
3:00 AM61 °FClear.6 mph69%29.91 "Hg22 mi
2:00 AM61 °FClear.6 mph71%29.92 "Hg22 mi
1:00 AM63 °FClear.6 mph67%29.93 "Hg25 mi
Weather by CustomWeather, © 2014

See weather overviewHow to use our weather pages